User: anonymous   Login
Location: Unspecified
(0.0000°N, 0.0000°E)
Time: 17:18:01
(UTC+00:00)
Language:

SO-67 - Orbit

View from above orbital plane
View from above orbital plane
View from above satellite
View from above satellite

Ground track
Ground track

The orbit data is extracted from the following two-line orbital elements,

1 35870U 09049F   17174.94279005 +.00004462 +00000-0 +71645-4 0  9994
2 35870 097.1025 191.5943 0003967 065.7482 341.2638 15.53555973434273
Epoch (UTC): 23 June 2017 22:37:37
Eccentricity: 0.0003967
inclination: 97.1025°
perigee height: 403 km
apogee height: 409 km
right ascension of ascending node: 191.5943°
argument of perigee: 65.7482°
revolutions per day: 15.53555973
mean anomaly at epoch: 341.2638°
orbit number at epoch: 43427

The dashed part of the orbit path shows where the satellite is in the earth's shadow,  

DLR